When you browse on this site, cookies collect data to enhance your experience and personalize the content and advertising you see.
Visit our Privacy Policy to learn more. By continuing to use the site, you agree to this use of cookies and data.
  • In United Kingdom
  • List of Countries
  • For 7 days
  • Water Temperature
  • Weather Map
  • Weather Widgets
  • user-avatar
    Login

    Hourly Weather Guildford

    Today, 17 October, Thursday

    Time Temperature Precipitation Wind Pressure Humidity
    00:00 +10°C° 0 mm 1 mps 747 mmHg 81%
    01:00 +10°C° 0 mm 1 mps 747 mmHg 82%
    02:00 +10°C° 0 mm 1 mps 747 mmHg 82%
    03:00 +10°C° 0 mm 1 mps 747 mmHg 83%
    04:00 +10°C° 0 mm 1 mps 747 mmHg 84%
    05:00 +10°C° 0 mm 1 mps 747 mmHg 84%
    06:00 +9°C° 0 mm 1 mps 747 mmHg 85%
    07:00 +10°C° 0.1 mm 2 mps 747 mmHg 83%
    08:00 +11°C° 0.1 mm 3 mps 747 mmHg 82%
    09:00 +12°C° 0.1 mm 3 mps 747 mmHg 80%
    10:00 +12°C° 0.3 mm 4 mps 747 mmHg 76%
    11:00 +13°C° 0.3 mm 5 mps 746 mmHg 72%
    12:00 +14°C° 0.3 mm 7 mps 746 mmHg 69%
    13:00 +14°C° 0.1 mm 6 mps 746 mmHg 70%
    14:00 +14°C° 0.1 mm 6 mps 746 mmHg 70%
    15:00 +14°C° 0.1 mm 6 mps 746 mmHg 71%
    16:00 +13°C° 0.1 mm 5 mps 745 mmHg 76%
    17:00 +12°C° 0.1 mm 5 mps 745 mmHg 80%
    18:00 +11°C° 0.1 mm 4 mps 745 mmHg 84%
    19:00 +11°C° 0 mm 4 mps 745 mmHg 85%
    20:00 +10°C° 0 mm 4 mps 745 mmHg 85%
    21:00 +10°C° 0 mm 4 mps 744 mmHg 86%
    22:00 +10°C° 0.2 mm 4 mps 744 mmHg 86%
    23:00 +10°C° 0.2 mm 4 mps 743 mmHg 86%

    Tomorrow, 18 October, Friday

    Time Temperature Precipitation Wind Pressure Humidity
    00:00 +9°C° 0.2 mm 5 mps 743 mmHg 86%
    01:00 +9°C° 2.5 mm 6 mps 742 mmHg 87%
    02:00 +9°C° 2.5 mm 7 mps 742 mmHg 88%
    03:00 +9°C° 2.5 mm 8 mps 741 mmHg 88%
    04:00 +9°C° 0.2 mm 7 mps 742 mmHg 88%
    05:00 +8°C° 0.2 mm 6 mps 742 mmHg 87%
    06:00 +8°C° 0.2 mm 5 mps 742 mmHg 86%
    07:00 +8°C° 0 mm 5 mps 742 mmHg 83%
    08:00 +9°C° 0 mm 6 mps 743 mmHg 79%
    09:00 +10°C° 0 mm 6 mps 743 mmHg 75%
    10:00 +11°C° 0.1 mm 7 mps 743 mmHg 73%
    11:00 +11°C° 0.1 mm 8 mps 744 mmHg 70%
    12:00 +12°C° 0.1 mm 9 mps 744 mmHg 68%
    13:00 +12°C° 0.2 mm 9 mps 744 mmHg 69%
    14:00 +12°C° 0.2 mm 8 mps 743 mmHg 70%
    15:00 +12°C° 0.2 mm 8 mps 743 mmHg 71%
    16:00 +11°C° 0.1 mm 7 mps 743 mmHg 74%
    17:00 +10°C° 0.1 mm 6 mps 743 mmHg 77%
    18:00 +9°C° 0.1 mm 5 mps 743 mmHg 80%
    19:00 +9°C° 0 mm 5 mps 743 mmHg 80%
    20:00 +9°C° 0 mm 5 mps 743 mmHg 81%
    21:00 +10°C° 0 mm 4 mps 743 mmHg 81%
    22:00 +10°C° 0 mm 4 mps 742 mmHg 82%
    23:00 +10°C° 0 mm 4 mps 742 mmHg 83%

    Day after tomorrow, 19 October, Saturday

    Time Temperature Precipitation Wind Pressure Humidity
    00:00 +8°C° 0 mm 4 mps 741 mmHg 84%
    01:00 +9°C° 0 mm 5 mps 741 mmHg 84%
    02:00 +9°C° 0 mm 5 mps 741 mmHg 83%
    03:00 +9°C° 0 mm 5 mps 741 mmHg 83%
    04:00 +9°C° 0 mm 5 mps 741 mmHg 84%
    05:00 +8°C° 0 mm 5 mps 741 mmHg 85%
    06:00 +8°C° 0 mm 5 mps 741 mmHg 86%
    07:00 +9°C° 0 mm 5 mps 741 mmHg 83%
    08:00 +9°C° 0 mm 6 mps 741 mmHg 81%
    09:00 +10°C° 0 mm 6 mps 742 mmHg 79%
    10:00 +11°C° 0 mm 6 mps 742 mmHg 75%
    11:00 +11°C° 0 mm 6 mps 742 mmHg 72%
    12:00 +13°C° 0 mm 6 mps 743 mmHg 68%
    13:00 +13°C° 0 mm 5 mps 743 mmHg 68%
    14:00 +13°C° 0 mm 5 mps 743 mmHg 68%
    15:00 +13°C° 0 mm 4 mps 744 mmHg 68%
    16:00 +12°C° 0 mm 4 mps 744 mmHg 74%
    17:00 +10°C° 0 mm 3 mps 744 mmHg 80%
    18:00 +9°C° 0 mm 2 mps 745 mmHg 86%
    19:00 +9°C° 0 mm 2 mps 745 mmHg 88%
    20:00 +8°C° 0 mm 2 mps 746 mmHg 89%
    21:00 +8°C° 0 mm 2 mps 747 mmHg 91%
    22:00 +7°C° 0 mm 2 mps 747 mmHg 91%
    23:00 +8°C° 0 mm 1 mps 747 mmHg 91%

    20 October, Sunday

    Time Temperature Precipitation Wind Pressure Humidity
    00:00 +8°C° 0 mm 1 mps 747 mmHg 92%
    01:00 +7°C° 0 mm 1 mps 748 mmHg 91%
    02:00 +7°C° 0 mm 1 mps 748 mmHg 91%
    03:00 +7°C° 0 mm 1 mps 749 mmHg 91%
    04:00 +7°C° 0 mm 1 mps 749 mmHg 91%
    05:00 +7°C° 0 mm 1 mps 749 mmHg 91%
    06:00 +7°C° 0 mm 1 mps 750 mmHg 91%
    07:00 +8°C° 0 mm 1 mps 750 mmHg 88%
    08:00 +9°C° 0 mm 1 mps 751 mmHg 85%
    09:00 +9°C° 0 mm 2 mps 751 mmHg 81%
    10:00 +10°C° 0 mm 2 mps 752 mmHg 76%
    11:00 +12°C° 0 mm 2 mps 752 mmHg 71%
    12:00 +13°C° 0 mm 2 mps 753 mmHg 67%
    13:00 +13°C° 0 mm 2 mps 753 mmHg 66%
    14:00 +13°C° 0 mm 2 mps 753 mmHg 65%
    15:00 +13°C° 0 mm 2 mps 753 mmHg 64%
    16:00 +12°C° 0 mm 2 mps 753 mmHg 68%
    17:00 +10°C° 0 mm 2 mps 754 mmHg 73%
    18:00 +9°C° 0 mm 2 mps 754 mmHg 77%
    19:00 +8°C° 0 mm 2 mps 755 mmHg 77%
    20:00 +8°C° 0 mm 2 mps 755 mmHg 78%
    21:00 +8°C° 0 mm 2 mps 755 mmHg 79%
    22:00 +7°C° 0 mm 2 mps 756 mmHg 81%
    23:00 +7°C° 0 mm 2 mps 756 mmHg 82%

    21 October, Monday

    Time Temperature Precipitation Wind Pressure Humidity
    00:00 +7°C° 0 mm 2 mps 756 mmHg 84%
    01:00 +6°C° 0 mm 2 mps 756 mmHg 85%
    02:00 +6°C° 0 mm 2 mps 756 mmHg 87%
    03:00 +6°C° 0 mm 2 mps 757 mmHg 88%
    04:00 +5°C° 0 mm 3 mps 757 mmHg 89%
    05:00 +4°C° 0 mm 3 mps 757 mmHg 89%
    06:00 +4°C° 0 mm 3 mps 757 mmHg 90%
    07:00 +5°C° 0 mm 4 mps 758 mmHg 89%
    08:00 +7°C° 0 mm 4 mps 758 mmHg 87%
    09:00 +8°C° 0 mm 5 mps 759 mmHg 86%
    10:00 +9°C° 0 mm 5 mps 759 mmHg 82%
    11:00 +10°C° 0 mm 6 mps 759 mmHg 78%
    12:00 +11°C° 0 mm 6 mps 759 mmHg 74%
    13:00 +11°C° 0 mm 6 mps 759 mmHg 73%
    14:00 +11°C° 0 mm 6 mps 759 mmHg 72%
    15:00 +11°C° 0 mm 6 mps 759 mmHg 71%
    16:00 +10°C° 0 mm 5 mps 758 mmHg 75%
    17:00 +9°C° 0 mm 5 mps 758 mmHg 80%
    18:00 +8°C° 0 mm 4 mps 758 mmHg 84%
    19:00 +8°C° 0 mm 5 mps 758 mmHg 86%
    20:00 +8°C° 0 mm 5 mps 758 mmHg 88%
    21:00 +8°C° 0 mm 6 mps 758 mmHg 90%
    22:00 +8°C° 0 mm 6 mps 758 mmHg 90%
    23:00 +8°C° 0 mm 6 mps 757 mmHg 90%

    22 October, Tuesday

    Time Temperature Precipitation Wind Pressure Humidity
    00:00 +8°C° 0 mm 6 mps 757 mmHg 90%
    01:00 +8°C° 0 mm 6 mps 756 mmHg 88%
    02:00 +9°C° 0 mm 6 mps 756 mmHg 87%
    03:00 +9°C° 0 mm 6 mps 755 mmHg 85%
    04:00 +9°C° 0.1 mm 7 mps 755 mmHg 86%
    05:00 +10°C° 0.1 mm 7 mps 754 mmHg 87%
    06:00 +10°C° 0.1 mm 7 mps 754 mmHg 88%
    07:00 +11°C° 0.1 mm 7 mps 754 mmHg 89%
    08:00 +11°C° 0.1 mm 6 mps 754 mmHg 89%
    09:00 +13°C° 0.1 mm 6 mps 754 mmHg 90%
    10:00 +13°C° 0 mm 5 mps 754 mmHg 89%
    11:00 +14°C° 0 mm 5 mps 754 mmHg 88%
    12:00 +14°C° 0 mm 4 mps 753 mmHg 87%
    13:00 +15°C° 0 mm 4 mps 753 mmHg 87%
    14:00 +16°C° 0 mm 3 mps 753 mmHg 87%
    15:00 +16°C° 0 mm 3 mps 753 mmHg 87%
    16:00 +14°C° 0 mm 3 mps 753 mmHg 90%
    17:00 +15°C° 0 mm 2 mps 753 mmHg 92%
    18:00 +14°C° 0 mm 2 mps 753 mmHg 95%
    19:00 +14°C° 0 mm 2 mps 753 mmHg 95%
    20:00 +14°C° 0 mm 2 mps 753 mmHg 95%
    21:00 +14°C° 0 mm 1 mps 753 mmHg 95%
    22:00 +14°C° 0 mm 1 mps 753 mmHg 95%
    23:00 +14°C° 0 mm 1 mps 752 mmHg 95%
    Show more